Time,TemperatureF,DewpointF,PressureIn,WindDirection,WindDirectionDegrees,WindSpeedMPH,WindSpeedGustMPH,Humidity,HourlyPrecipIn,Conditions,Clouds,dailyrainin,SoftwareType,DateUTC
2013-03-16 00:01:00,56.6,51.2,21.74,WSW,254,0.0,0.0,82,0.00,,---,0.00,VWS V13.01,2013-03-16 07:01:00,
2013-03-16 00:06:00,56.4,51.0,21.74,WSW,255,0.0,0.0,82,0.00,,---,0.00,VWS V13.01,2013-03-16 07:06:00,
2013-03-16 00:11:00,56.0,50.9,21.74,WSW,255,0.0,0.0,83,0.00,,---,0.00,VWS V13.01,2013-03-16 07:11:00,
2013-03-16 00:16:00,55.8,50.7,21.75,WSW,255,0.0,0.0,83,0.00,,---,0.00,VWS V13.01,2013-03-16 07:16:00,
2013-03-16 00:21:00,55.8,50.7,21.75,WSW,255,0.0,0.0,83,0.00,,---,0.00,VWS V13.01,2013-03-16 07:21:00,
2013-03-16 00:26:00,55.4,50.3,21.75,WSW,255,0.0,0.0,83,0.00,,---,0.00,VWS V13.01,2013-03-16 07:26:00,
2013-03-16 00:31:00,55.3,50.6,21.75,WSW,255,0.0,0.0,84,0.00,,---,0.00,VWS V13.01,2013-03-16 07:31:00,
2013-03-16 00:36:00,55.3,50.2,21.74,WSW,255,0.0,0.0,83,0.00,,---,0.00,VWS V13.01,2013-03-16 07:36:00,
2013-03-16 00:41:00,55.0,49.9,21.74,WSW,255,0.0,0.0,83,0.00,,---,0.00,VWS V13.01,2013-03-16 07:41:00,
2013-03-16 00:46:00,55.1,50.7,21.74,WSW,255,0.0,0.0,85,0.00,,---,0.00,VWS V13.01,2013-03-16 07:46:00,
2013-03-16 00:51:00,55.1,50.4,21.75,WSW,255,0.0,0.0,84,0.00,,---,0.00,VWS V13.01,2013-03-16 07:51:00,
2013-03-16 00:56:00,54.9,50.2,21.75,WSW,255,0.0,0.0,84,0.00,,---,0.00,VWS V13.01,2013-03-16 07:56:00,
2013-03-16 01:01:00,54.5,49.8,21.74,WSW,255,0.0,0.0,84,0.00,,---,0.00,VWS V13.01,2013-03-16 08:01:00,
2013-03-16 01:06:00,54.4,50.0,21.74,WSW,255,0.0,0.0,85,0.00,,---,0.00,VWS V13.01,2013-03-16 08:06:00,
2013-03-16 01:11:00,54.3,49.6,21.74,WSW,254,0.0,0.0,84,0.00,,---,0.00,VWS V13.01,2013-03-16 08:11:00,
2013-03-16 01:16:00,54.1,49.7,21.74,WSW,255,0.0,0.0,85,0.00,,---,0.00,VWS V13.01,2013-03-16 08:16:00,
2013-03-16 01:21:00,54.0,49.6,21.74,WSW,254,0.0,0.0,85,0.00,,---,0.00,VWS V13.01,2013-03-16 08:21:00,
2013-03-16 01:26:00,54.0,49.6,21.74,WSW,255,0.0,0.0,85,0.00,,---,0.00,VWS V13.01,2013-03-16 08:26:00,
2013-03-16 01:31:00,54.0,49.9,21.74,WSW,255,0.0,0.0,86,0.00,,---,0.00,VWS V13.01,2013-03-16 08:31:00,
2013-03-16 01:36:00,54.0,49.6,21.75,WSW,255,0.0,0.0,85,0.00,,---,0.00,VWS V13.01,2013-03-16 08:36:00,
2013-03-16 01:41:00,53.9,49.8,21.75,WSW,254,0.0,0.0,86,0.00,,---,0.00,VWS V13.01,2013-03-16 08:41:00,
2013-03-16 01:47:00,53.7,49.6,21.74,WSW,255,0.0,0.0,86,0.00,,---,0.00,VWS V13.01,2013-03-16 08:47:00,
2013-03-16 01:52:00,53.5,49.4,21.75,WSW,255,0.0,0.0,86,0.00,,---,0.00,VWS V13.01,2013-03-16 08:52:00,
2013-03-16 01:57:00,53.4,49.3,21.75,WSW,255,0.0,0.0,86,0.00,,---,0.00,VWS V13.01,2013-03-16 08:57:00,
2013-03-16 02:02:00,53.2,48.8,21.75,WSW,255,0.0,0.0,85,0.00,,---,0.00,VWS V13.01,2013-03-16 09:02:00,
2013-03-16 02:07:00,53.0,48.9,21.75,WSW,255,0.0,0.0,86,0.00,,---,0.00,VWS V13.01,2013-03-16 09:07:00,
2013-03-16 02:12:00,52.8,48.7,21.75,WSW,255,0.0,0.0,86,0.00,,---,0.00,VWS V13.01,2013-03-16 09:12:00,
2013-03-16 02:17:00,52.7,48.6,21.75,WSW,255,0.0,0.0,86,0.00,,---,0.00,VWS V13.01,2013-03-16 09:17:00,
2013-03-16 02:22:00,52.6,48.8,21.75,WSW,255,0.0,0.0,87,0.00,,---,0.00,VWS V13.01,2013-03-16 09:22:00,
2013-03-16 02:27:00,52.4,48.7,21.75,WSW,255,0.0,0.0,87,0.00,,---,0.00,VWS V13.01,2013-03-16 09:27:00,
2013-03-16 02:32:00,52.2,48.8,21.76,WSW,255,0.0,0.0,88,0.00,,---,0.00,VWS V13.01,2013-03-16 09:32:00,
2013-03-16 02:37:00,52.1,48.7,21.76,WSW,255,0.0,0.0,88,0.00,,---,0.00,VWS V13.01,2013-03-16 09:37:00,
2013-03-16 02:42:00,52.0,48.9,21.76,WSW,255,0.0,0.0,89,0.00,,---,0.00,VWS V13.01,2013-03-16 09:42:00,
2013-03-16 02:47:00,52.0,48.6,21.76,WSW,255,0.0,0.0,88,0.00,,---,0.00,VWS V13.01,2013-03-16 09:47:00,
2013-03-16 02:52:00,51.9,48.5,21.76,WSW,255,0.0,0.0,88,0.00,,---,0.00,VWS V13.01,2013-03-16 09:52:00,
2013-03-16 02:57:00,51.8,48.4,21.77,WSW,255,0.0,0.0,88,0.00,,---,0.00,VWS V13.01,2013-03-16 09:57:00,
2013-03-16 03:02:00,51.7,48.3,21.76,WSW,255,0.0,0.0,88,0.00,,---,0.00,VWS V13.01,2013-03-16 10:02:00,
2013-03-16 03:08:00,51.6,48.2,21.76,WSW,255,0.0,0.0,88,0.00,,---,0.00,VWS V13.01,2013-03-16 10:08:00,
2013-03-16 03:13:00,51.7,48.3,21.76,WSW,255,0.0,0.0,88,0.00,,---,0.00,VWS V13.01,2013-03-16 10:13:00,
2013-03-16 03:18:00,51.8,48.4,21.76,WSW,255,0.0,0.0,88,0.00,,---,0.00,VWS V13.01,2013-03-16 10:18:00,
2013-03-16 03:23:00,51.8,48.7,21.76,WSW,255,0.0,0.0,89,0.00,,---,0.00,VWS V13.01,2013-03-16 10:23:00,
2013-03-16 03:28:00,51.8,48.7,21.76,WSW,255,0.0,0.0,89,0.00,,---,0.00,VWS V13.01,2013-03-16 10:28:00,
2013-03-16 03:33:00,51.9,48.8,21.76,WSW,255,1.0,2.0,89,0.00,,---,0.00,VWS V13.01,2013-03-16 10:33:00,
2013-03-16 03:38:00,51.9,48.8,21.76,WSW,255,0.0,3.0,89,0.00,,---,0.00,VWS V13.01,2013-03-16 10:38:00,
2013-03-16 03:43:00,51.8,49.0,21.76,WSW,255,0.0,3.0,90,0.00,,---,0.00,VWS V13.01,2013-03-16 10:43:00,
2013-03-16 03:48:00,51.7,48.9,21.76,WSW,255,0.0,3.0,90,0.00,,---,0.00,VWS V13.01,2013-03-16 10:48:00,
2013-03-16 03:53:00,51.7,48.9,21.76,WSW,255,0.0,3.0,90,0.00,,---,0.00,VWS V13.01,2013-03-16 10:53:00,
2013-03-16 03:58:00,51.6,48.8,21.76,WSW,255,2.0,3.0,90,0.00,,---,0.00,VWS V13.01,2013-03-16 10:58:00,
2013-03-16 04:03:00,51.6,48.8,21.76,WSW,255,2.0,5.0,90,0.00,,---,0.00,VWS V13.01,2013-03-16 11:03:00,
2013-03-16 04:09:00,51.4,48.6,21.77,WSW,255,0.0,5.0,90,0.00,,---,0.00,VWS V13.01,2013-03-16 11:09:00,
2013-03-16 04:14:00,51.3,48.5,21.77,WSW,255,0.0,5.0,90,0.00,,---,0.00,VWS V13.01,2013-03-16 11:14:00,
2013-03-16 04:19:00,51.2,48.7,21.77,WSW,255,1.0,5.0,91,0.00,,---,0.00,VWS V13.01,2013-03-16 11:19:00,
2013-03-16 04:24:00,51.1,48.6,21.76,WSW,255,0.0,5.0,91,0.00,,---,0.00,VWS V13.01,2013-03-16 11:24:00,
2013-03-16 04:29:00,51.0,48.5,21.77,WSW,255,1.0,5.0,91,0.00,,---,0.00,VWS V13.01,2013-03-16 11:29:00,
2013-03-16 04:34:00,50.9,48.4,21.76,WSW,255,0.0,2.0,91,0.00,,---,0.00,VWS V13.01,2013-03-16 11:34:00,
2013-03-16 04:39:00,50.9,48.4,21.76,WSW,255,0.0,2.0,91,0.00,,---,0.00,VWS V13.01,2013-03-16 11:39:00,
2013-03-16 04:44:00,50.9,48.4,21.76,WSW,255,0.0,2.0,91,0.00,,---,0.00,VWS V13.01,2013-03-16 11:44:00,
2013-03-16 04:49:00,50.8,48.0,21.76,WSW,255,0.0,2.0,90,0.00,,---,0.00,VWS V13.01,2013-03-16 11:49:00,
2013-03-16 04:55:00,50.6,47.8,21.76,WSW,255,0.0,2.0,90,0.00,,---,0.00,VWS V13.01,2013-03-16 11:55:00,
2013-03-16 05:00:00,50.4,47.6,21.76,WSW,255,0.0,2.0,90,0.00,,---,0.00,VWS V13.01,2013-03-16 12:00:00,
2013-03-16 05:05:00,50.2,47.4,21.77,WSW,255,0.0,0.0,90,0.00,,---,0.00,VWS V13.01,2013-03-16 12:05:00,
2013-03-16 05:10:00,50.0,47.5,21.77,WSW,255,0.0,0.0,91,0.00,,---,0.00,VWS V13.01,2013-03-16 12:10:00,
2013-03-16 05:15:00,49.9,47.4,21.78,WSW,255,0.0,0.0,91,0.00,,---,0.00,VWS V13.01,2013-03-16 12:15:00,
2013-03-16 05:20:00,49.8,47.3,21.77,WSW,255,0.0,0.0,91,0.00,,---,0.00,VWS V13.01,2013-03-16 12:20:00,
2013-03-16 05:25:00,49.6,47.1,21.77,WSW,255,0.0,0.0,91,0.00,,---,0.00,VWS V13.01,2013-03-16 12:25:00,
2013-03-16 05:30:00,49.4,47.2,21.78,WSW,255,0.0,0.0,92,0.00,,---,0.00,VWS V13.01,2013-03-16 12:30:00,
2013-03-16 05:35:00,49.5,47.3,21.78,WSW,255,0.0,0.0,92,0.00,,---,0.00,VWS V13.01,2013-03-16 12:35:00,
2013-03-16 05:40:00,49.5,47.3,21.78,WSW,255,0.0,0.0,92,0.00,,---,0.00,VWS V13.01,2013-03-16 12:40:00,
2013-03-16 05:45:00,49.5,47.3,21.78,WSW,254,0.0,0.0,92,0.00,,---,0.00,VWS V13.01,2013-03-16 12:45:00,
2013-03-16 05:50:00,49.5,47.3,21.78,WSW,255,0.0,0.0,92,0.00,,---,0.00,VWS V13.01,2013-03-16 12:50:00,
2013-03-16 05:55:00,49.4,46.9,21.78,WSW,255,0.0,0.0,91,0.00,,---,0.00,VWS V13.01,2013-03-16 12:55:00,
2013-03-16 06:00:00,49.3,47.1,21.78,WSW,255,0.0,0.0,92,0.00,,---,0.00,VWS V13.01,2013-03-16 13:00:00,
2013-03-16 06:05:00,49.1,46.9,21.79,WSW,255,0.0,0.0,92,0.00,,---,0.00,VWS V13.01,2013-03-16 13:05:00,
2013-03-16 06:11:00,49.0,46.5,21.79,WSW,255,0.0,0.0,91,0.00,,---,0.00,VWS V13.01,2013-03-16 13:11:00,
2013-03-16 06:16:00,48.9,46.7,21.79,WSW,255,0.0,0.0,92,0.00,,---,0.00,VWS V13.01,2013-03-16 13:16:00,
2013-03-16 06:21:00,48.8,46.6,21.78,WSW,255,0.0,0.0,92,0.00,,---,0.00,VWS V13.01,2013-03-16 13:21:00,
2013-03-16 06:26:00,48.6,46.1,21.78,WSW,255,0.0,0.0,91,0.00,,---,0.00,VWS V13.01,2013-03-16 13:26:00,
2013-03-16 06:31:00,48.5,46.0,21.78,WSW,255,0.0,0.0,91,0.00,,---,0.00,VWS V13.01,2013-03-16 13:31:00,
2013-03-16 06:36:00,48.5,46.3,21.78,WSW,255,0.0,0.0,92,0.00,,---,0.00,VWS V13.01,2013-03-16 13:36:00,
2013-03-16 06:41:00,48.4,45.9,21.78,WSW,251,0.0,0.0,91,0.00,,---,0.00,VWS V13.01,2013-03-16 13:41:00,
2013-03-16 06:46:00,48.4,45.9,21.79,WSW,252,0.0,0.0,91,0.00,,---,0.00,VWS V13.01,2013-03-16 13:46:00,
2013-03-16 06:51:00,48.3,45.8,21.79,WSW,252,0.0,0.0,91,0.00,,---,0.00,VWS V13.01,2013-03-16 13:51:00,
2013-03-16 06:56:00,48.3,45.8,21.80,WSW,252,0.0,0.0,91,0.00,,---,0.00,VWS V13.01,2013-03-16 13:56:00,
2013-03-16 07:01:00,48.4,45.9,21.79,WSW,252,0.0,0.0,91,0.00,,---,0.00,VWS V13.01,2013-03-16 14:01:00,
2013-03-16 07:06:00,48.4,45.6,21.80,WSW,252,0.0,0.0,90,0.00,,---,0.00,VWS V13.01,2013-03-16 14:06:00,
2013-03-16 07:11:00,48.1,45.3,21.80,WSW,252,0.0,0.0,90,0.00,,---,0.00,VWS V13.01,2013-03-16 14:11:00,
2013-03-16 07:16:00,47.8,45.3,21.80,WSW,252,0.0,0.0,91,0.00,,---,0.00,VWS V13.01,2013-03-16 14:16:00,
2013-03-16 07:21:00,47.7,45.2,21.80,WSW,252,0.0,0.0,91,0.00,,---,0.00,VWS V13.01,2013-03-16 14:21:00,
2013-03-16 07:27:00,47.4,44.6,21.80,WSW,252,0.0,0.0,90,0.00,,---,0.00,VWS V13.01,2013-03-16 14:27:00,
2013-03-16 07:32:00,47.3,44.8,21.80,WSW,252,0.0,0.0,91,0.00,,---,0.00,VWS V13.01,2013-03-16 14:32:00,
2013-03-16 07:37:00,47.2,44.7,21.81,WSW,252,0.0,0.0,91,0.00,,---,0.00,VWS V13.01,2013-03-16 14:37:00,
2013-03-16 07:42:00,47.2,44.7,21.81,WSW,252,0.0,0.0,91,0.00,,---,0.00,VWS V13.01,2013-03-16 14:42:00,
2013-03-16 07:47:00,47.4,45.2,21.81,WSW,252,0.0,0.0,92,0.00,,---,0.00,VWS V13.01,2013-03-16 14:47:00,
2013-03-16 07:52:00,47.5,45.3,21.81,WSW,252,0.0,0.0,92,0.00,,---,0.00,VWS V13.01,2013-03-16 14:52:00,
2013-03-16 07:57:00,47.6,45.4,21.81,WSW,253,0.0,0.0,92,0.00,,---,0.00,VWS V13.01,2013-03-16 14:57:00,
2013-03-16 08:02:00,47.8,45.6,21.82,WSW,253,0.0,0.0,92,0.00,,---,0.00,VWS V13.01,2013-03-16 15:02:00,
2013-03-16 08:07:00,48.1,45.9,21.82,WSW,253,0.0,0.0,92,0.00,,---,0.00,VWS V13.01,2013-03-16 15:07:00,
2013-03-16 08:12:00,48.5,46.6,21.82,WSW,252,0.0,0.0,93,0.00,,---,0.00,VWS V13.01,2013-03-16 15:12:00,
2013-03-16 08:17:00,48.9,47.0,21.82,WSW,253,0.0,1.0,93,0.00,,---,0.00,VWS V13.01,2013-03-16 15:17:00,
2013-03-16 08:22:00,49.2,47.3,21.83,WSW,252,2.0,3.0,93,0.00,,---,0.00,VWS V13.01,2013-03-16 15:22:00,
2013-03-16 08:27:00,49.5,47.6,21.82,WSW,252,1.0,3.0,93,0.00,,---,0.00,VWS V13.01,2013-03-16 15:27:00,
2013-03-16 08:32:00,49.7,47.8,21.82,WSW,252,0.0,1.0,93,0.00,,---,0.00,VWS V13.01,2013-03-16 15:32:00,
2013-03-16 08:37:00,49.9,48.0,21.83,WSW,253,0.0,2.0,93,0.00,,---,0.00,VWS V13.01,2013-03-16 15:37:00,
2013-03-16 08:42:00,50.4,48.2,21.83,WSW,253,0.0,2.0,92,0.00,,---,0.00,VWS V13.01,2013-03-16 15:42:00,
2013-03-16 08:48:00,50.9,48.7,21.83,WSW,253,0.0,2.0,92,0.00,,---,0.00,VWS V13.01,2013-03-16 15:48:00,
2013-03-16 08:53:00,51.6,49.1,21.83,WSW,253,0.0,2.0,91,0.00,,---,0.00,VWS V13.01,2013-03-16 15:53:00,
2013-03-16 08:58:00,52.1,49.3,21.83,WSW,252,0.0,2.0,90,0.00,,---,0.00,VWS V13.01,2013-03-16 15:58:00,
2013-03-16 09:03:00,52.5,49.4,21.83,WSW,252,0.0,1.0,89,0.00,,---,0.00,VWS V13.01,2013-03-16 16:03:00,
2013-03-16 09:09:00,52.9,49.8,21.84,WSW,253,0.0,2.0,89,0.00,,---,0.00,VWS V13.01,2013-03-16 16:09:00,
2013-03-16 09:14:00,53.2,50.0,21.84,WSW,254,0.0,3.0,89,0.00,,---,0.00,VWS V13.01,2013-03-16 16:14:00,
2013-03-16 09:19:00,53.7,50.2,21.84,WSW,254,0.0,3.0,88,0.00,,---,0.00,VWS V13.01,2013-03-16 16:19:00,
2013-03-16 09:24:00,54.0,50.5,21.84,WSW,255,0.0,4.0,88,0.00,,---,0.00,VWS V13.01,2013-03-16 16:24:00,
2013-03-16 09:29:00,54.5,51.0,21.84,WSW,255,1.0,4.0,88,0.00,,---,0.00,VWS V13.01,2013-03-16 16:29:00,
2013-03-16 09:34:00,55.1,51.3,21.84,WSW,257,0.0,4.0,87,0.00,,---,0.00,VWS V13.01,2013-03-16 16:34:00,
2013-03-16 09:39:00,55.8,51.7,21.84,WSW,257,2.0,4.0,86,0.00,,---,0.00,VWS V13.01,2013-03-16 16:39:00,
2013-03-16 09:44:00,56.3,51.9,21.84,WSW,258,3.0,4.0,85,0.00,,---,0.00,VWS V13.01,2013-03-16 16:44:00,
2013-03-16 09:49:00,56.9,51.5,21.84,WNW,291,4.0,5.0,82,0.00,,---,0.00,VWS V13.01,2013-03-16 16:49:00,
2013-03-16 09:54:00,57.4,51.6,21.84,WNW,294,4.0,5.0,81,0.00,,---,0.00,VWS V13.01,2013-03-16 16:54:00,
2013-03-16 10:00:00,57.8,51.7,21.84,WNW,300,2.0,6.0,80,0.00,,---,0.00,VWS V13.01,2013-03-16 17:00:00,
2013-03-16 10:05:00,58.3,52.2,21.84,WNW,300,2.0,4.0,80,0.00,,---,0.00,VWS V13.01,2013-03-16 17:05:00,
2013-03-16 10:10:00,58.7,52.2,21.83,WNW,300,0.0,4.0,79,0.00,,---,0.00,VWS V13.01,2013-03-16 17:10:00,
2013-03-16 10:15:00,59.1,52.3,21.83,WNW,300,0.0,4.0,78,0.00,,---,0.00,VWS V13.01,2013-03-16 17:15:00,
2013-03-16 10:20:00,59.4,51.8,21.83,WNW,300,2.0,4.0,76,0.00,,---,0.00,VWS V13.01,2013-03-16 17:20:00,
2013-03-16 10:25:00,59.7,52.1,21.83,WNW,300,2.0,4.0,76,0.00,,---,0.00,VWS V13.01,2013-03-16 17:25:00,
2013-03-16 10:30:00,60.1,51.8,21.83,WNW,300,0.0,4.0,74,0.00,,---,0.00,VWS V13.01,2013-03-16 17:30:00,
2013-03-16 10:35:00,60.6,51.9,21.83,WNW,302,0.0,5.0,73,0.00,,---,0.00,VWS V13.01,2013-03-16 17:35:00,
2013-03-16 10:40:00,61.0,52.3,21.83,NW,306,1.0,5.0,73,0.00,,---,0.00,VWS V13.01,2013-03-16 17:40:00,
2013-03-16 10:45:00,61.5,52.4,21.82,NW,306,3.0,5.0,72,0.00,,---,0.00,VWS V13.01,2013-03-16 17:45:00,
2013-03-16 10:51:00,61.9,51.6,21.82,NW,324,4.0,7.0,69,0.00,,---,0.00,VWS V13.01,2013-03-16 17:51:00,
2013-03-16 10:56:00,62.4,51.7,21.82,NW,323,2.0,7.0,68,0.00,,---,0.00,VWS V13.01,2013-03-16 17:56:00,
2013-03-16 11:01:00,62.9,51.8,21.82,NW,326,1.0,3.0,67,0.00,,---,0.00,VWS V13.01,2013-03-16 18:01:00,
2013-03-16 11:06:00,63.5,52.4,21.81,NNW,330,4.0,6.0,67,0.00,,---,0.00,VWS V13.01,2013-03-16 18:06:00,
2013-03-16 11:12:00,64.1,52.1,21.81,NNW,331,1.0,6.0,65,0.00,,---,0.00,VWS V13.01,2013-03-16 18:12:00,
2013-03-16 11:17:00,64.6,51.7,21.80,NNW,332,1.0,6.0,63,0.00,,---,0.00,VWS V13.01,2013-03-16 18:17:00,
2013-03-16 11:23:00,65.2,51.9,21.80,NNW,333,2.0,6.0,62,0.00,,---,0.00,VWS V13.01,2013-03-16 18:23:00,
2013-03-16 11:28:00,65.7,52.8,21.81,West,273,4.0,6.0,63,0.00,,---,0.00,VWS V13.01,2013-03-16 18:28:00,
2013-03-16 11:33:00,66.1,53.2,21.81,WNW,299,2.0,5.0,63,0.00,,---,0.00,VWS V13.01,2013-03-16 18:33:00,
2013-03-16 11:38:00,66.6,53.2,21.81,West,280,4.0,5.0,62,0.00,,---,0.00,VWS V13.01,2013-03-16 18:38:00,
2013-03-16 11:43:00,66.8,52.9,21.81,NW,312,4.0,5.0,61,0.00,,---,0.00,VWS V13.01,2013-03-16 18:43:00,
2013-03-16 11:48:00,67.1,52.3,21.81,NNW,342,3.0,9.0,59,0.00,,---,0.00,VWS V13.01,2013-03-16 18:48:00,
2013-03-16 11:53:00,67.5,52.7,21.81,NNW,332,5.0,9.0,59,0.00,,---,0.00,VWS V13.01,2013-03-16 18:53:00,
2013-03-16 11:58:00,67.7,51.0,21.81,North,350,6.0,9.0,55,0.00,,---,0.00,VWS V13.01,2013-03-16 18:58:00,
2013-03-16 12:03:00,68.0,50.8,21.81,North,356,4.0,9.0,54,0.00,,---,0.00,VWS V13.01,2013-03-16 19:03:00,
2013-03-16 12:08:00,68.3,51.5,21.81,NNW,343,6.0,9.0,55,0.00,,---,0.00,VWS V13.01,2013-03-16 19:08:00,
2013-03-16 12:14:00,68.8,51.5,21.81,NNW,347,6.0,11.0,54,0.00,,---,0.00,VWS V13.01,2013-03-16 19:14:00,
2013-03-16 12:19:00,69.3,51.5,21.81,NNW,344,4.0,11.0,53,0.00,,---,0.00,VWS V13.01,2013-03-16 19:19:00,
2013-03-16 12:24:00,69.7,52.8,21.81,North,357,4.0,11.0,55,0.00,,---,0.00,VWS V13.01,2013-03-16 19:24:00,
2013-03-16 12:29:00,70.4,52.5,21.80,NNW,345,5.0,11.0,53,0.00,,---,0.00,VWS V13.01,2013-03-16 19:29:00,
2013-03-16 12:34:00,70.8,52.3,21.80,NNW,346,5.0,9.0,52,0.00,,---,0.00,VWS V13.01,2013-03-16 19:34:00,
2013-03-16 12:39:00,71.0,52.0,21.80,NNW,333,2.0,9.0,51,0.00,,---,0.00,VWS V13.01,2013-03-16 19:39:00,
2013-03-16 12:45:00,71.2,51.6,21.80,North,354,7.0,13.0,50,0.00,,---,0.00,VWS V13.01,2013-03-16 19:45:00,
2013-03-16 12:50:00,71.5,50.2,21.80,NNW,346,5.0,15.0,47,0.00,,---,0.00,VWS V13.01,2013-03-16 19:50:00,
2013-03-16 12:55:00,71.9,51.2,21.80,NNW,346,6.0,15.0,48,0.00,,---,0.00,VWS V13.01,2013-03-16 19:55:00,
2013-03-16 13:00:00,72.1,51.3,21.79,NNW,344,5.0,15.0,48,0.00,,---,0.00,VWS V13.01,2013-03-16 20:00:00,
2013-03-16 13:05:00,72.3,51.5,21.79,NNW,348,4.0,9.0,48,0.00,,---,0.00,VWS V13.01,2013-03-16 20:05:00,
2013-03-16 13:10:00,72.4,50.5,21.78,NNW,348,6.0,11.0,46,0.00,,---,0.00,VWS V13.01,2013-03-16 20:10:00,
2013-03-16 13:16:00,72.6,48.8,21.77,North,349,2.0,11.0,43,0.00,,---,0.00,VWS V13.01,2013-03-16 20:16:00,
2013-03-16 13:21:00,72.9,48.5,21.77,North,0,5.0,12.0,42,0.00,,---,0.00,VWS V13.01,2013-03-16 20:21:00,
2013-03-16 13:26:00,73.2,47.5,21.77,NNW,345,8.0,12.0,40,0.00,,---,0.00,VWS V13.01,2013-03-16 20:26:00,
2013-03-16 13:31:00,73.6,47.8,21.76,North,350,4.0,7.0,40,0.00,,---,0.00,VWS V13.01,2013-03-16 20:31:00,
2013-03-16 13:36:00,73.9,48.1,21.76,North,354,1.0,10.0,40,0.00,,---,0.00,VWS V13.01,2013-03-16 20:36:00,
2013-03-16 13:41:00,74.1,48.3,21.75,North,358,3.0,10.0,40,0.00,,---,0.00,VWS V13.01,2013-03-16 20:41:00,
2013-03-16 13:46:00,74.4,48.5,21.75,North,349,5.0,10.0,40,0.00,,---,0.00,VWS V13.01,2013-03-16 20:46:00,
2013-03-16 13:51:00,74.8,48.2,21.74,North,4,6.0,10.0,39,0.00,,---,0.00,VWS V13.01,2013-03-16 20:51:00,
2013-03-16 13:56:00,75.2,48.6,21.74,North,357,4.0,11.0,39,0.00,,---,0.00,VWS V13.01,2013-03-16 20:56:00,
2013-03-16 14:01:00,75.7,49.7,21.74,NNW,330,4.0,6.0,40,0.00,,---,0.00,VWS V13.01,2013-03-16 21:01:00,
2013-03-16 14:06:00,75.9,47.8,21.73,NNW,344,4.0,7.0,37,0.00,,---,0.00,VWS V13.01,2013-03-16 21:06:00,
2013-03-16 14:11:00,75.9,47.1,21.73,NNW,340,4.0,11.0,36,0.00,,---,0.00,VWS V13.01,2013-03-16 21:11:00,
2013-03-16 14:16:00,76.2,48.0,21.73,North,0,4.0,11.0,37,0.00,,---,0.00,VWS V13.01,2013-03-16 21:16:00,
2013-03-16 14:21:00,76.3,48.1,21.73,North,357,5.0,11.0,37,0.00,,---,0.00,VWS V13.01,2013-03-16 21:21:00,
2013-03-16 14:27:00,76.3,46.7,21.73,NNW,345,7.0,12.0,35,0.00,,---,0.00,VWS V13.01,2013-03-16 21:27:00,
2013-03-16 14:32:00,76.5,46.8,21.73,NNW,332,3.0,7.0,35,0.00,,---,0.00,VWS V13.01,2013-03-16 21:32:00,
2013-03-16 14:37:00,76.7,45.5,21.73,NNW,342,7.0,11.0,33,0.00,,---,0.00,VWS V13.01,2013-03-16 21:37:00,
2013-03-16 14:42:00,76.8,44.7,21.72,NNW,348,5.0,11.0,32,0.00,,---,0.00,VWS V13.01,2013-03-16 21:42:00,
2013-03-16 14:47:00,76.9,47.2,21.72,NNW,344,2.0,11.0,35,0.00,,---,0.00,VWS V13.01,2013-03-16 21:47:00,
2013-03-16 14:52:00,77.1,45.8,21.71,North,351,2.0,12.0,33,0.00,,---,0.00,VWS V13.01,2013-03-16 21:52:00,
2013-03-16 14:58:00,77.1,45.8,21.71,North,351,9.0,12.0,33,0.00,,---,0.00,VWS V13.01,2013-03-16 21:58:00,
2013-03-16 15:03:00,76.9,45.6,21.71,NNW,328,2.0,9.0,33,0.00,,---,0.00,VWS V13.01,2013-03-16 22:03:00,
2013-03-16 15:08:00,77.0,45.7,21.70,North,355,5.0,9.0,33,0.00,,---,0.00,VWS V13.01,2013-03-16 22:08:00,
2013-03-16 15:13:00,77.1,45.8,21.70,NNW,341,2.0,10.0,33,0.00,,---,0.00,VWS V13.01,2013-03-16 22:13:00,
2013-03-16 15:18:00,77.2,45.9,21.70,North,355,5.0,10.0,33,0.00,,---,0.00,VWS V13.01,2013-03-16 22:18:00,
2013-03-16 15:23:00,77.1,45.0,21.70,NNW,343,3.0,10.0,32,0.00,,---,0.00,VWS V13.01,2013-03-16 22:23:00,
2013-03-16 15:29:00,77.2,45.9,21.70,NNW,344,2.0,10.0,33,0.00,,---,0.00,VWS V13.01,2013-03-16 22:29:00,
2013-03-16 15:34:00,77.4,51.2,21.69,NW,307,4.0,9.0,40,0.00,,---,0.00,VWS V13.01,2013-03-16 22:34:00,
2013-03-16 15:39:00,77.5,52.0,21.70,West,275,5.0,9.0,41,0.00,,---,0.00,VWS V13.01,2013-03-16 22:39:00,
2013-03-16 15:44:00,77.3,51.8,21.70,WSW,254,3.0,9.0,41,0.00,,---,0.00,VWS V13.01,2013-03-16 22:44:00,
2013-03-16 15:49:00,77.3,52.5,21.69,SSW,192,5.0,9.0,42,0.00,,---,0.00,VWS V13.01,2013-03-16 22:49:00,
2013-03-16 15:54:00,77.3,52.5,21.69,WSW,243,3.0,9.0,42,0.00,,---,0.00,VWS V13.01,2013-03-16 22:54:00,
2013-03-16 15:59:00,77.1,51.6,21.69,WNW,303,5.0,9.0,41,0.00,,---,0.00,VWS V13.01,2013-03-16 22:59:00,
2013-03-16 16:04:00,77.3,51.1,21.69,NNW,345,4.0,7.0,40,0.00,,---,0.00,VWS V13.01,2013-03-16 23:04:00,
2013-03-16 16:09:00,77.0,51.5,21.69,West,279,4.0,7.0,41,0.00,,---,0.00,VWS V13.01,2013-03-16 23:09:00,
2013-03-16 16:14:00,77.1,50.3,21.69,NNW,330,4.0,7.0,39,0.00,,---,0.00,VWS V13.01,2013-03-16 23:14:00,
2013-03-16 16:19:00,77.1,50.9,21.69,West,259,5.0,8.0,40,0.00,,---,0.00,VWS V13.01,2013-03-16 23:19:00,
2013-03-16 16:24:00,77.2,49.7,21.69,NNW,345,4.0,8.0,38,0.00,,---,0.00,VWS V13.01,2013-03-16 23:24:00,
2013-03-16 16:29:00,77.1,48.8,21.69,NNW,346,3.0,8.0,37,0.00,,---,0.00,VWS V13.01,2013-03-16 23:29:00,
2013-03-16 16:34:00,77.2,53.6,21.69,SSW,208,5.0,10.0,44,0.00,,---,0.00,VWS V13.01,2013-03-16 23:34:00,
2013-03-16 16:40:00,77.3,54.3,21.69,WSW,249,4.0,10.0,45,0.00,,---,0.00,VWS V13.01,2013-03-16 23:40:00,
2013-03-16 16:45:00,77.0,55.2,21.68,SW,231,6.0,11.0,47,0.00,,---,0.00,VWS V13.01,2013-03-16 23:45:00,
2013-03-16 16:50:00,76.7,54.4,21.69,SW,225,6.0,11.0,46,0.00,,---,0.00,VWS V13.01,2013-03-16 23:50:00,
2013-03-16 16:55:00,76.4,54.7,21.68,West,260,3.0,11.0,47,0.00,,---,0.00,VWS V13.01,2013-03-16 23:55:00,
2013-03-16 17:00:00,76.2,55.1,21.69,WSW,252,6.0,7.0,48,0.00,,---,0.00,VWS V13.01,2013-03-17 00:00:00,
2013-03-16 17:05:00,75.9,54.2,21.68,WSW,238,6.0,9.0,47,0.00,,---,0.00,VWS V13.01,2013-03-17 00:05:00,
2013-03-16 17:10:00,75.6,53.4,21.68,WSW,250,7.0,9.0,46,0.00,,---,0.00,VWS V13.01,2013-03-17 00:10:00,
2013-03-16 17:15:00,75.4,54.4,21.68,SW,235,4.0,9.0,48,0.00,,---,0.00,VWS V13.01,2013-03-17 00:15:00,
2013-03-16 17:20:00,75.2,54.2,21.68,WSW,245,5.0,9.0,48,0.00,,---,0.00,VWS V13.01,2013-03-17 00:20:00,
2013-03-16 17:25:00,74.9,53.3,21.68,WSW,247,4.0,9.0,47,0.00,,---,0.00,VWS V13.01,2013-03-17 00:25:00,
2013-03-16 17:30:00,74.6,53.6,21.68,WSW,245,5.0,6.0,48,0.00,,---,0.00,VWS V13.01,2013-03-17 00:30:00,
2013-03-16 17:35:00,74.3,53.4,21.68,SW,230,4.0,6.0,48,0.00,,---,0.00,VWS V13.01,2013-03-17 00:35:00,
2013-03-16 17:41:00,74.1,54.3,21.68,WSW,249,3.0,7.0,50,0.00,,---,0.00,VWS V13.01,2013-03-17 00:41:00,
2013-03-16 17:46:00,73.9,54.7,21.67,SW,232,3.0,7.0,51,0.00,,---,0.00,VWS V13.01,2013-03-17 00:46:00,
2013-03-16 17:51:00,73.6,55.4,21.67,SW,233,3.0,7.0,53,0.00,,---,0.00,VWS V13.01,2013-03-17 00:51:00,
2013-03-16 17:56:00,73.5,55.9,21.67,WSW,237,4.0,7.0,54,0.00,,---,0.00,VWS V13.01,2013-03-17 00:56:00,
2013-03-16 18:01:00,73.2,56.1,21.68,SW,234,3.0,6.0,55,0.00,,---,0.00,VWS V13.01,2013-03-17 01:01:00,
2013-03-16 18:06:00,72.9,56.3,21.67,WSW,237,2.0,6.0,56,0.00,,---,0.00,VWS V13.01,2013-03-17 01:06:00,
2013-03-16 18:11:00,72.6,56.0,21.68,WSW,248,3.0,7.0,56,0.00,,---,0.00,VWS V13.01,2013-03-17 01:11:00,
2013-03-16 18:16:00,72.3,56.2,21.67,WSW,251,5.0,7.0,57,0.00,,---,0.00,VWS V13.01,2013-03-17 01:16:00,
2013-03-16 18:21:00,72.0,56.0,21.67,WSW,251,3.0,7.0,57,0.00,,---,0.00,VWS V13.01,2013-03-17 01:21:00,
2013-03-16 18:27:00,71.8,56.2,21.67,WSW,251,4.0,7.0,58,0.00,,---,0.00,VWS V13.01,2013-03-17 01:27:00,
2013-03-16 18:32:00,71.4,55.4,21.67,WSW,246,2.0,5.0,57,0.00,,---,0.00,VWS V13.01,2013-03-17 01:32:00,
2013-03-16 18:37:00,71.1,55.6,21.67,SW,232,2.0,5.0,58,0.00,,---,0.00,VWS V13.01,2013-03-17 01:37:00,
2013-03-16 18:42:00,70.8,55.3,21.67,SW,232,2.0,6.0,58,0.00,,---,0.00,VWS V13.01,2013-03-17 01:42:00,
2013-03-16 18:47:00,70.4,55.4,21.68,SW,230,2.0,6.0,59,0.00,,---,0.00,VWS V13.01,2013-03-17 01:47:00,
2013-03-16 18:52:00,69.9,54.9,21.68,SW,236,4.0,6.0,59,0.00,,---,0.00,VWS V13.01,2013-03-17 01:52:00,
2013-03-16 18:58:00,69.5,54.6,21.68,SW,232,3.0,6.0,59,0.00,,---,0.00,VWS V13.01,2013-03-17 01:58:00,
2013-03-16 19:03:00,69.1,54.7,21.68,SW,222,2.0,5.0,60,0.00,,---,0.00,VWS V13.01,2013-03-17 02:03:00,
2013-03-16 19:08:00,68.8,54.4,21.68,SW,222,1.0,5.0,60,0.00,,---,0.00,VWS V13.01,2013-03-17 02:08:00,
2013-03-16 19:14:00,68.3,54.3,21.68,SW,222,3.0,5.0,61,0.00,,---,0.00,VWS V13.01,2013-03-17 02:14:00,
2013-03-16 19:19:00,67.9,54.0,21.68,SW,221,2.0,5.0,61,0.00,,---,0.00,VWS V13.01,2013-03-17 02:19:00,
2013-03-16 19:24:00,67.6,53.7,21.68,SW,221,3.0,6.0,61,0.00,,---,0.00,VWS V13.01,2013-03-17 02:24:00,
2013-03-16 19:29:00,67.2,53.8,21.67,SW,221,3.0,6.0,62,0.00,,---,0.00,VWS V13.01,2013-03-17 02:29:00,
2013-03-16 19:35:00,66.8,53.4,21.68,SW,221,3.0,5.0,62,0.00,,---,0.00,VWS V13.01,2013-03-17 02:35:00,
2013-03-16 19:40:00,66.5,52.7,21.67,SSW,211,3.0,5.0,61,0.00,,---,0.00,VWS V13.01,2013-03-17 02:40:00,
2013-03-16 19:45:00,66.3,52.5,21.67,SSW,211,2.0,6.0,61,0.00,,---,0.00,VWS V13.01,2013-03-17 02:45:00,
2013-03-16 19:50:00,66.1,52.3,21.68,SSW,209,3.0,6.0,61,0.00,,---,0.00,VWS V13.01,2013-03-17 02:50:00,
2013-03-16 19:55:00,65.8,52.0,21.68,SSW,209,3.0,6.0,61,0.00,,---,0.00,VWS V13.01,2013-03-17 02:55:00,
2013-03-16 20:00:00,65.5,51.7,21.68,SSW,209,2.0,2.0,61,0.00,,---,0.00,VWS V13.01,2013-03-17 03:00:00,
2013-03-16 20:06:00,65.2,51.9,21.68,SSW,209,1.0,4.0,62,0.00,,---,0.00,VWS V13.01,2013-03-17 03:06:00,
2013-03-16 20:11:00,64.9,51.6,21.68,SSW,209,2.0,4.0,62,0.00,,---,0.00,VWS V13.01,2013-03-17 03:11:00,
2013-03-16 20:16:00,64.6,51.3,21.68,SSW,209,1.0,4.0,62,0.00,,---,0.00,VWS V13.01,2013-03-17 03:16:00,
2013-03-16 20:21:00,64.3,51.5,21.69,SSW,209,3.0,4.0,63,0.00,,---,0.00,VWS V13.01,2013-03-17 03:21:00,
2013-03-16 20:26:00,64.1,51.3,21.69,SSW,209,2.0,4.0,63,0.00,,---,0.00,VWS V13.01,2013-03-17 03:26:00,
2013-03-16 20:32:00,63.7,50.9,21.69,SSW,209,2.0,3.0,63,0.00,,---,0.00,VWS V13.01,2013-03-17 03:32:00,
2013-03-16 20:37:00,63.5,51.1,21.69,SSW,209,1.0,4.0,64,0.00,,---,0.00,VWS V13.01,2013-03-17 03:37:00,
2013-03-16 20:43:00,63.2,50.8,21.69,SSW,209,2.0,4.0,64,0.00,,---,0.00,VWS V13.01,2013-03-17 03:43:00,
2013-03-16 20:48:00,63.0,50.7,21.70,SSW,209,1.0,4.0,64,0.00,,---,0.00,VWS V13.01,2013-03-17 03:48:00,
2013-03-16 20:53:00,62.7,50.8,21.70,SSW,209,0.0,4.0,65,0.00,,---,0.00,VWS V13.01,2013-03-17 03:53:00,
2013-03-16 20:59:00,62.5,50.6,21.70,SSW,209,0.0,4.0,65,0.00,,---,0.00,VWS V13.01,2013-03-17 03:59:00,
2013-03-16 21:00:00,62.5,50.6,21.70,SSW,209,0.0,4.0,65,0.00,,---,0.00,VWS V13.01,2013-03-17 04:00:00,
2013-03-16 21:01:00,62.4,50.5,21.70,SSW,209,0.0,0.0,65,0.00,,---,0.00,VWS V13.01,2013-03-17 04:01:00,
2013-03-16 21:06:00,62.3,50.8,21.71,SSW,209,2.0,3.0,66,0.00,,---,0.00,VWS V13.01,2013-03-17 04:06:00,
2013-03-16 21:11:00,61.9,50.4,21.70,SSW,209,0.0,4.0,66,0.00,,---,0.00,VWS V13.01,2013-03-17 04:11:00,
2013-03-16 21:16:00,61.7,50.6,21.71,SSW,209,1.0,4.0,67,0.00,,---,0.00,VWS V13.01,2013-03-17 04:16:00,
2013-03-16 21:21:00,61.4,50.4,21.71,SSW,209,1.0,4.0,67,0.00,,---,0.00,VWS V13.01,2013-03-17 04:21:00,
2013-03-16 21:26:00,61.1,50.1,21.72,SSW,209,0.0,4.0,67,0.00,,---,0.00,VWS V13.01,2013-03-17 04:26:00,
2013-03-16 21:31:00,61.0,50.4,21.71,SSW,209,0.0,2.0,68,0.00,,---,0.00,VWS V13.01,2013-03-17 04:31:00,
2013-03-16 21:36:00,60.8,50.2,21.72,SSW,209,0.0,2.0,68,0.00,,---,0.00,VWS V13.01,2013-03-17 04:36:00,
2013-03-16 21:41:00,60.6,50.4,21.72,SSW,209,0.0,2.0,69,0.00,,---,0.00,VWS V13.01,2013-03-17 04:41:00,
2013-03-16 21:47:00,60.3,50.1,21.72,SSW,209,0.0,2.0,69,0.00,,---,0.00,VWS V13.01,2013-03-17 04:47:00,
2013-03-16 21:52:00,60.1,49.9,21.73,SSW,209,1.0,3.0,69,0.00,,---,0.00,VWS V13.01,2013-03-17 04:52:00,
2013-03-16 21:57:00,59.8,50.0,21.73,SSW,209,0.0,3.0,70,0.00,,---,0.00,VWS V13.01,2013-03-17 04:57:00,
2013-03-16 22:02:00,59.5,49.7,21.73,SSW,209,0.0,1.0,70,0.00,,---,0.00,VWS V13.01,2013-03-17 05:02:00,
2013-03-16 22:07:00,59.3,49.9,21.73,SSW,209,4.0,4.0,71,0.00,,---,0.00,VWS V13.01,2013-03-17 05:07:00,
2013-03-16 22:12:00,59.0,49.6,21.72,SSW,210,3.0,4.0,71,0.00,,---,0.00,VWS V13.01,2013-03-17 05:12:00,
2013-03-16 22:18:00,58.8,49.4,21.73,SW,221,3.0,6.0,71,0.00,,---,0.00,VWS V13.01,2013-03-17 05:18:00,
2013-03-16 22:23:00,58.7,49.0,21.73,SW,226,3.0,7.0,70,0.00,,---,0.00,VWS V13.01,2013-03-17 05:23:00,
2013-03-16 22:28:00,58.7,49.0,21.73,SW,228,3.0,7.0,70,0.00,,---,0.00,VWS V13.01,2013-03-17 05:28:00,
2013-03-16 22:33:00,58.5,48.8,21.74,SW,230,1.0,5.0,70,0.00,,---,0.00,VWS V13.01,2013-03-17 05:33:00,
2013-03-16 22:38:00,58.4,48.3,21.74,SW,234,0.0,6.0,69,0.00,,---,0.00,VWS V13.01,2013-03-17 05:38:00,
2013-03-16 22:43:00,58.2,48.5,21.74,SW,234,3.0,6.0,70,0.00,,---,0.00,VWS V13.01,2013-03-17 05:43:00,
2013-03-16 22:48:00,57.9,48.2,21.75,SW,234,0.0,6.0,70,0.00,,---,0.00,VWS V13.01,2013-03-17 05:48:00,
2013-03-16 22:53:00,57.7,48.4,21.75,SW,234,0.0,6.0,71,0.00,,---,0.00,VWS V13.01,2013-03-17 05:53:00,
2013-03-16 22:58:00,57.5,48.2,21.75,SW,234,0.0,6.0,71,0.00,,---,0.00,VWS V13.01,2013-03-17 05:58:00,
2013-03-16 23:03:00,57.3,48.0,21.75,WSW,252,0.0,0.0,71,0.00,,---,0.00,VWS V13.01,2013-03-17 06:03:00,
2013-03-16 23:08:00,57.2,47.9,21.76,WSW,252,0.0,0.0,71,0.00,,---,0.00,VWS V13.01,2013-03-17 06:08:00,
2013-03-16 23:13:00,57.1,48.2,21.76,WSW,251,0.0,0.0,72,0.00,,---,0.00,VWS V13.01,2013-03-17 06:13:00,
2013-03-16 23:18:00,57.0,47.7,21.76,WSW,252,1.0,3.0,71,0.00,,---,0.00,VWS V13.01,2013-03-17 06:18:00,
2013-03-16 23:23:00,56.8,47.5,21.76,WSW,251,0.0,3.0,71,0.00,,---,0.00,VWS V13.01,2013-03-17 06:23:00,
2013-03-16 23:28:00,56.6,47.7,21.76,WSW,251,0.0,3.0,72,0.00,,---,0.00,VWS V13.01,2013-03-17 06:28:00,
2013-03-16 23:33:00,56.4,47.5,21.76,WSW,251,0.0,1.0,72,0.00,,---,0.00,VWS V13.01,2013-03-17 06:33:00,
2013-03-16 23:38:00,56.1,47.6,21.77,WSW,251,0.0,2.0,73,0.00,,---,0.00,VWS V13.01,2013-03-17 06:38:00,
2013-03-16 23:43:00,55.9,47.4,21.76,WSW,251,0.0,2.0,73,0.00,,---,0.00,VWS V13.01,2013-03-17 06:43:00,
2013-03-16 23:48:00,55.6,47.1,21.77,WSW,251,0.0,2.0,73,0.00,,---,0.00,VWS V13.01,2013-03-17 06:48:00,
2013-03-16 23:53:00,55.4,47.3,21.77,WSW,251,0.0,2.0,74,0.00,,---,0.00,VWS V13.01,2013-03-17 06:53:00,
2013-03-16 23:58:00,55.2,47.4,21.77,WSW,251,0.0,2.0,75,0.00,,---,0.00,VWS V13.01,2013-03-17 06:58:00,